Change the Weather History Date:

Saturday, April 12, 2014

  Actual Average Record
Temperature  
Mean Temperature 71 °F -  
Max Temperature 82 °F 64 °F 82 °F (2003)
Min Temperature 60 °F 43 °F 35 °F (1997)
Cooling Degree Days 6    
Growing Degree Days 21 (Base 50)    
Moisture  
Dew Point 53 °F    
Average Humidity 56    
Maximum Humidity 77    
Minimum Humidity 39    
Precipitation  
Precipitation 0.24 in - - ()
Sea Level Pressure  
Sea Level Pressure 29.83 in    
Wind  
Wind Speed 10 mph (South)    
Max Wind Speed 21 mph    
Max Gust Speed 32 mph    
Visibility 10 miles    
Events      
Averages and records for this station are not official NWS values.
T = Trace of Precipitation, MM = Missing Value Source: NWS Daily Summary

Daily Weather History Graph

Daily Weather History Graph

Search for Another Location

Airport or City:

Trip Planner

Search our weather history database for the weather conditions in past years. The results will help you decide how hot, cold, wet, or windy it might be!

Date:

Astronomy

Apr. 12, 2014 Rise Set
Actual Time 6:38 AM CDT 7:43 PM CDT
Civil Twilight 6:11 AM CDT 8:10 PM CDT
Nautical Twilight 5:39 AM CDT 8:42 PM CDT
Astronomical Twilight 5:06 AM CDT 9:16 PM CDT
Moon 5:24 PM CDT (4/12) 5:03 AM CDT (4/12)
Length of Visible Light 13h 58m
Length of Day
13h 04m
Waxing Gibbous, 93% of the Moon is Illuminated
Apr 12
Waxing Gibbous
Apr 15
Full
Apr 22
Last Quarter
Apr 29
New
May 6
First Quarter

Hourly Weather History & Observations

Time (CDT) Temp. Heat Index Dew Point Humidity Pressure Visibility Wind Dir Wind Speed Gust Speed Precip Events Conditions
12:15 AM 62.6 °F - 48.2 °F 59% 29.98 in 10.0 mi SSE 4.6 mph - N/A   Clear
12:35 AM 62.6 °F - 51.8 °F 68% 29.98 in 10.0 mi SSE 4.6 mph - N/A   Clear
12:55 AM 62.6 °F - 51.8 °F 68% 29.98 in 10.0 mi South 5.8 mph - N/A   Clear
1:15 AM 62.6 °F - 51.8 °F 68% 29.98 in 10.0 mi South 5.8 mph - N/A   Clear
1:35 AM 62.6 °F - 53.6 °F 72% 29.98 in 10.0 mi South 5.8 mph - N/A   Clear
1:55 AM 62.6 °F - 51.8 °F 68% 29.97 in 10.0 mi South 6.9 mph - N/A   Clear
2:15 AM 62.6 °F - 53.6 °F 72% 29.97 in 10.0 mi South 6.9 mph - N/A   Clear
2:35 AM 62.6 °F - 53.6 °F 72% 29.96 in 10.0 mi South 6.9 mph - N/A   Clear
2:55 AM 62.6 °F - 51.8 °F 68% 29.95 in 10.0 mi South 6.9 mph - N/A   Clear
3:15 AM 60.8 °F - 51.8 °F 72% 29.95 in 10.0 mi South 5.8 mph - N/A   Clear
3:35 AM 60.8 °F - 53.6 °F 77% 29.94 in 10.0 mi South 6.9 mph - N/A   Clear
3:55 AM 60.8 °F - 51.8 °F 72% 29.94 in 10.0 mi South 5.8 mph - N/A   Clear
4:15 AM 60.8 °F - 51.8 °F 72% 29.93 in 10.0 mi SSE 6.9 mph - N/A   Clear
4:35 AM 60.8 °F - 51.8 °F 72% 29.92 in 10.0 mi South 6.9 mph - N/A   Clear
4:55 AM 60.8 °F - 51.8 °F 72% 29.93 in 10.0 mi South 9.2 mph - 0.02 in   Clear
5:15 AM 60.8 °F - 51.8 °F 72% 29.92 in 10.0 mi South 8.1 mph - N/A   Clear
5:35 AM 60.8 °F - 51.8 °F 72% 29.92 in 10.0 mi South 5.8 mph - N/A   Clear
5:55 AM 60.8 °F - 51.8 °F 72% 29.92 in 10.0 mi South 8.1 mph - N/A   Clear
6:15 AM 60.8 °F - 53.6 °F 77% 29.92 in 10.0 mi South 8.1 mph - N/A   Clear
6:35 AM 60.8 °F - 53.6 °F 77% 29.91 in 10.0 mi South 6.9 mph - N/A   Clear
6:55 AM 60.8 °F - 53.6 °F 77% 29.91 in 10.0 mi South 6.9 mph - N/A   Clear
7:15 AM 60.8 °F - 53.6 °F 77% 29.92 in 10.0 mi South 8.1 mph - N/A   Clear
7:35 AM 62.6 °F - 53.6 °F 72% 29.92 in 10.0 mi South 10.4 mph - N/A   Clear
7:55 AM 62.6 °F - 53.6 °F 72% 29.92 in 10.0 mi South 8.1 mph - 0.04 in   Clear
8:15 AM 64.4 °F - 53.6 °F 68% 29.92 in 10.0 mi South 10.4 mph - 0.02 in   Clear
8:55 AM 66.2 °F - 53.6 °F 64% 29.92 in 10.0 mi South 12.7 mph 16.1 mph 0.07 in   Mostly Cloudy
9:15 AM 66.2 °F - 55.4 °F 68% 29.91 in 10.0 mi South 11.5 mph - 0.03 in   Overcast
9:35 AM 69.8 °F - 55.4 °F 60% 29.91 in 10.0 mi SSW 10.4 mph - 0.06 in   Overcast
9:55 AM 71.6 °F - 55.4 °F 57% 29.91 in 10.0 mi South 15.0 mph 19.6 mph 0.06 in   Overcast
10:15 AM 71.6 °F - 55.4 °F 57% 29.90 in 10.0 mi South 15.0 mph - 0.01 in   Scattered Clouds
10:35 AM 73.4 °F - 55.4 °F 53% 29.90 in 10.0 mi South 15.0 mph 21.9 mph 0.01 in   Clear
10:55 AM 75.2 °F - 55.4 °F 50% 29.88 in 10.0 mi South 16.1 mph 20.7 mph 0.01 in   Clear
11:15 AM 77.0 °F - 55.4 °F 47% 29.87 in 10.0 mi South 12.7 mph 16.1 mph N/A   Clear
11:35 AM 77.0 °F - 55.4 °F 47% 29.87 in 10.0 mi South 11.5 mph 19.6 mph N/A   Clear
11:55 AM 78.8 °F - 55.4 °F 44% 29.86 in 10.0 mi South 16.1 mph 24.2 mph N/A   Partly Cloudy
12:15 PM 78.8 °F - 55.4 °F 44% 29.85 in 10.0 mi South 13.8 mph 23.0 mph 0.01 in   Scattered Clouds
12:35 PM 78.8 °F - 55.4 °F 44% 29.84 in 10.0 mi SSW 12.7 mph 21.9 mph 0.01 in   Scattered Clouds
12:55 PM 78.8 °F - 55.4 °F 44% 29.82 in 10.0 mi South 12.7 mph 21.9 mph 0.01 in   Partly Cloudy
1:15 PM 80.6 °F 80.5 °F 55.4 °F 42% 29.81 in 10.0 mi South 15.0 mph 23.0 mph N/A   Scattered Clouds
1:35 PM 80.6 °F 80.5 °F 55.4 °F 42% 29.79 in 10.0 mi South 17.3 mph 31.1 mph N/A   Partly Cloudy
1:55 PM 80.6 °F 80.5 °F 55.4 °F 42% 29.78 in 10.0 mi South 16.1 mph 24.2 mph N/A   Scattered Clouds
2:15 PM 82.4 °F 81.7 °F 55.4 °F 39% 29.78 in 10.0 mi South 18.4 mph 23.0 mph N/A   Scattered Clouds
2:35 PM 82.4 °F 81.7 °F 55.4 °F 39% 29.76 in 10.0 mi South 17.3 mph 27.6 mph N/A   Partly Cloudy
2:55 PM 82.4 °F 81.7 °F 55.4 °F 39% 29.76 in 10.0 mi South 16.1 mph 25.3 mph N/A   Clear
3:15 PM 80.6 °F 80.5 °F 55.4 °F 42% 29.75 in 10.0 mi South 19.6 mph 32.2 mph N/A   Clear
3:35 PM 80.6 °F 80.5 °F 55.4 °F 42% 29.74 in 10.0 mi South 15.0 mph 32.2 mph N/A   Clear
3:55 PM 80.6 °F 80.5 °F 55.4 °F 42% 29.73 in 10.0 mi South 19.6 mph 27.6 mph N/A   Clear
4:15 PM 78.8 °F - 55.4 °F 44% 29.73 in 10.0 mi South 16.1 mph 27.6 mph N/A   Clear
4:35 PM 78.8 °F - 55.4 °F 44% 29.72 in 10.0 mi SSE 18.4 mph 26.5 mph N/A   Clear
4:55 PM 78.8 °F - 55.4 °F 44% 29.72 in 10.0 mi South 20.7 mph 27.6 mph N/A   Clear
5:15 PM 78.8 °F - 55.4 °F 44% 29.71 in 10.0 mi South 17.3 mph 32.2 mph N/A   Clear
5:35 PM 78.8 °F - 53.6 °F 42% 29.71 in 10.0 mi South 16.1 mph 26.5 mph N/A   Clear
5:55 PM 78.8 °F - 55.4 °F 44% 29.71 in 10.0 mi South 13.8 mph 24.2 mph N/A   Clear
6:15 PM 78.8 °F - 55.4 °F 44% 29.71 in 10.0 mi South 19.6 mph 24.2 mph N/A   Clear
6:35 PM 77.0 °F - 53.6 °F 44% 29.71 in 10.0 mi South 15.0 mph 26.5 mph N/A   Clear
6:55 PM 75.2 °F - 55.4 °F 50% 29.71 in 10.0 mi South 11.5 mph 16.1 mph N/A   Clear
7:15 PM 75.2 °F - 53.6 °F 47% 29.71 in 10.0 mi South 11.5 mph 18.4 mph N/A   Clear
7:35 PM 75.2 °F - 51.8 °F 44% 29.71 in 10.0 mi South 16.1 mph 26.5 mph N/A   Clear
7:55 PM 73.4 °F - 51.8 °F 47% 29.71 in 10.0 mi South 11.5 mph 23.0 mph N/A   Clear
8:15 PM 73.4 °F - 51.8 °F 47% 29.71 in 10.0 mi South 15.0 mph 20.7 mph N/A   Clear
8:35 PM 73.4 °F - 51.8 °F 47% 29.72 in 10.0 mi South 12.7 mph 21.9 mph 0.01 in   Clear
8:55 PM 71.6 °F - 51.8 °F 50% 29.72 in 10.0 mi South 9.2 mph 18.4 mph 0.01 in   Clear
9:15 PM 71.6 °F - 51.8 °F 50% 29.72 in 10.0 mi South 10.4 mph 17.3 mph N/A   Clear
9:35 PM 71.6 °F - 50.0 °F 46% 29.72 in 10.0 mi South 11.5 mph 19.6 mph 0.02 in   Clear
9:55 PM 71.6 °F - 50.0 °F 46% 29.72 in 10.0 mi South 8.1 mph - 0.02 in   Clear
10:15 PM 69.8 °F - 50.0 °F 49% 29.73 in 10.0 mi South 10.4 mph - N/A   Clear
10:35 PM 69.8 °F - 50.0 °F 49% 29.73 in 10.0 mi South 9.2 mph 16.1 mph N/A   Clear
10:55 PM 69.8 °F - 50.0 °F 49% 29.73 in 10.0 mi South 9.2 mph 16.1 mph N/A   Clear
11:15 PM 69.8 °F - 51.8 °F 53% 29.72 in 10.0 mi South 9.2 mph - N/A   Clear
11:35 PM 69.8 °F - 51.8 °F 53% 29.72 in 10.0 mi South 16.1 mph 19.6 mph N/A   Clear
11:55 PM 69.8 °F - 51.8 °F 53% 29.73 in 10.0 mi South 15.0 mph 20.7 mph N/A   Clear